Terug naar catalogus

STARLINK-36954

ActiefCommunicatieVLEO
NORAD 68057·PAYLOAD·🇺🇸 United States

Gelanceerd Mar 2, 2026 vanaf Vandenberg Space Force Base

Loading…

Volgende Passages (komende 24 uur)

TLE

VersSource: CelesTrak SupGP

Epoch: Sep 15, 2026, 03:40 UTC

1 68057C 26041T   26258.15326389 -.00041687  00000+0 -12316-2 0  2589
2 68057  53.1573 244.7564 0001301  89.6317  51.5446 15.34412729    17

Volg STARLINK-36954 in realtime met AllMySat

Download on the App Store